TIANHUI 5C

Last updated on Sun Aug 04 2024 00:02:04 GMT+0000 (Coordinated Universal Time)

1 60211U 24126A 24216.52872653 .00001038 00000+0 12011-3 0 9997 2 60211 97.8295 222.6087 0001370 99.8043 260.3328 14.87625057 4398
UTC large
Height (km)
Speed (km/s)
/
Latitude / Longitude
Inclination (degrees)
Orbital Period (minutes)
Azimuth
Elevation
Range (km)
Doppler Factor

Next 0 passes for location: London (51.5072 / 0.1276)

Sorry there are no passes over London.